Flag for Switzerland Weather past 2 weeks in Schwyz, Schwyz, Switzerland

Now
66 °F

Mild.


Feels Like: 66 °F
Forecast: 41 / 71 °F
Wind: 5 mph from Northwest

Location: Altdorf

Current Time: Apr 21, 2015 at 5:52:52 PM

Latest Report: Apr 21, 2015 at 4:00 PM


Visibility: N/A

Pressure: 30.27 "Hg

Humidity: 42%

Dew point: 43 °F

Location of SchwyzLocation

Historic Weather in Schwyz — Graph

°F

Schwyz temperature yesterday

Maximum temperature yesterday: 62 °F (at 5:00 PM)
Minimum temperature yesterday: 36 °F (at 6:00 AM)
Average temperature yesterday: 50 °F

Past Weeks' High & Low Weather Summary

 TemperatureHumidityPressure
High70 °F (Apr 15, 5:00 PM)95% (Apr 19, 4:00 AM)30.59 "Hg (Apr 19, 4:00 AM)
Low30 °F (Apr 8, 8:00 AM)27% (Apr 10, 6:00 PM)29.92 "Hg (Apr 16, 6:00 PM)
Average50 °F65%30.26 "Hg
* Reported Apr 6 4:00 PM — Apr 21 4:00 PM, Schwyz, Weather by CustomWeather, © 2015

Note: Actual official high and low records may vary slightly from our data, if they occured in-between our weather recording intervals... More about our weather records

Advertising

Schwyz weather history for previous 24 hours

 ConditionsComfort  
Time TempWeatherWind HumidityBarometerVisibility
4:00 PM
Tue, Apr 21
66 °FMild.5 mph42%30.27 "HgN/A
3:00 PM64 °FMild.5 mph49%30.29 "HgN/A
2:00 PM62 °FPassing clouds.7 mph51%30.30 "Hg19 mi
1:00 PM59 °FRefreshingly cool.6 mph55%30.32 "HgN/A
12:00 PM57 °FRefreshingly cool.5 mph59%30.34 "HgN/A
11:00 AM54 °FPassing clouds.5 mph62%30.34 "Hg19 mi
10:00 AM51 °FCool.3 mph71%30.35 "HgN/A
9:00 AM49 °FCool.1 mph74%30.35 "HgN/A
8:00 AM43 °FSunny.1 mph78%30.37 "Hg16 mi
7:00 AM41 °FQuite cool.1 mph82%30.35 "HgN/A
6:00 AM40 °FChilly.3 mph85%30.33 "HgN/A
5:00 AM41 °FPassing clouds.2 mph82%30.33 "Hg16 mi
4:00 AM42 °FQuite cool.3 mph80%30.32 "HgN/A
3:00 AM42 °FQuite cool.3 mph81%30.33 "HgN/A
2:00 AM46 °FPassing clouds.2 mph71%30.31 "Hg16 mi
1:00 AM42 °FQuite cool.1 mph81%30.32 "HgN/A
12:00 AM45 °FQuite cool.2 mph74%30.31 "HgN/A
11:00 PM
Mon, Apr 20
47 °FPassing clouds.2 mph70%30.30 "Hg16 mi
10:00 PM52 °FCool.No wind57%30.26 "HgN/A
9:00 PM54 °FCool.2 mph52%30.23 "HgN/A
8:00 PM55 °FScattered clouds.3 mph47%30.19 "Hg16 mi
7:00 PM60 °FRefreshingly cool.7 mph42%30.16 "HgN/A
6:00 PM60 °FRefreshingly cool.8 mph49%30.15 "HgN/A
5:00 PM62 °FScattered clouds.10 mph49%30.14 "Hg19 mi
Weather by CustomWeather, © 2015

See weather overviewHow to use our weather pages